Location: Newton_Old_St_Pauls
(35.6750°N, 81.2580°W)
Time: 20:52:05
(UTC-04:00)

Daily predictions for brighter satellites

Satellite Brightness Start Highest point End
(mag) Time Altitude Azimuth Time Altitude Azimuth Time Altitude Azimuth
Delta 2 Rocket 3.8 20:01:01 10° W 20:06:04 70° SSW 20:10:27 10° ESE
METEOR-M 4.2 20:04:01 10° SSE 20:09:21 87° WSW 20:14:44 10° NNW
COSMOS 2406 3.8 20:05:45 10° NNW 20:11:26 65° WSW 20:17:03 10° S
Cosmos 1125 Rocket 4.2 20:08:10 10° SSE 20:12:41 31° E 20:17:13 10° NE
Resurs 01 Rocket 2.4 20:09:26 10° SE 20:13:20 32° ENE 20:17:16 10° N
Meteor 2-5 Rocket 4.1 20:08:06 10° NNW 20:13:51 75° W 20:19:41 10° S
Cosmos 1766 3.2 20:10:44 10° S 20:14:33 66° E 20:18:24 10° NNE
Cosmos 1605 Rocket 4.2 20:12:40 10° SSE 20:18:41 52° E 20:24:48 10° NNE
HJ-1C 3.3 20:24:26 10° SSE 20:27:47 66° ENE 20:31:11 10° N
SeaSat 1 2.5 20:23:07 10° SE 20:27:58 64° ENE 20:32:51 10° NNW
Cosmos 1674 4.3 20:28:43 10° NE 20:31:09 16° ENE 20:31:53 15° E
Cosmos 2123 Rocket 4.0 20:29:36 10° N 20:35:57 76° E 20:42:11 10° S
SL-27 R/B 2.8 20:34:38 10° NNW 20:38:14 70° WSW 20:41:50 10° S
Cosmos 2344 4.3 20:32:37 10° SW 20:40:10 60° NW 20:48:30 10° NNE
RESURS DK-1 2.5 20:36:07 10° NNW 20:40:15 77° WSW 20:44:22 10° SSE
CZ-2D R/B 3.5 20:38:18 10° SSE 20:42:00 46° ENE 20:45:44 10° N
CZ-3B DEB 4.3 20:33:09 10° WSW 20:44:35 43° NW 20:50:07 10° NNE
Cosmos 1805 3.1 20:42:39 10° S 20:46:32 82° E 20:50:27 10° N
Meteor 1-29 3.9 20:44:37 10° NE 20:47:39 27° E 20:48:19 25° ESE
In-Cosmos 22 4.0 20:42:33 10° N 20:47:52 82° E 20:53:08 10° S
GPS 2-05 Rocket1 3.0 20:46:18 10° WSW 20:49:49 59° SSE 20:51:22 30° E
ALOS 2.9 20:46:41 10° S 20:51:16 57° W 20:55:53 10° NNW
Cosmos 1818 3.8 20:46:06 10° NNW 20:51:25 50° ENE 20:54:41 22° ESE
COSMOS 2487 3.5 20:49:58 10° N 20:53:03 27° ENE 20:53:16 27° ENE
Resurs 1-3 3.5 20:49:17 10° SSE 20:53:38 80° ENE 20:58:03 10° N
Meteor 1-4 Rocket 2.4 20:54:29 10° S 20:57:56 86° W 21:01:26 10° N
Yuri Rocket 4.4 20:54:27 10° WSW 20:58:00 25° S 20:59:42 19° SSE
Cosmos 1269 Rocket 4.3 20:52:58 10° N 20:58:04 46° ENE 21:00:49 25° SE
Timation 1 Rocket 4.5 20:52:58 10° SSW 20:58:59 80° WNW 21:05:02 10° NNE
FENGYUN 3A 4.4 20:55:28 10° S 21:00:45 54° W 21:06:02 10° NNW
Cosmos 1470 3.1 21:00:37 24° SSE 21:02:35 42° E 21:06:20 10° NNE
Timation 2 Rocket 4.4 20:57:02 10° N 21:02:55 40° ENE 21:05:26 28° ESE
Cosmos 1833 Rocket 3.1 20:58:05 10° N 21:03:25 42° ENE 21:05:39 29° ESE
Cosmos 468 4.4 20:59:21 10° NNW 21:04:36 80° ENE 21:08:48 16° SSE
Cosmos 1408 Rocket 3.7 21:01:43 10° N 21:06:04 50° E 21:07:46 32° SE
Cosmos 2278 Rocket 3.8 21:00:57 10° SW 21:06:10 37° WNW 21:11:25 10° N
Cosmos 1544 4.0 21:02:50 10° SSW 21:06:22 49° W 21:09:56 10° N
Cosmos 372 Rocket 3.8 21:05:07 10° SSW 21:10:13 85° ESE 21:15:23 10° NNE
Spot 1 4.2 21:07:43 22° SSE 21:10:36 69° ENE 21:15:27 10° N
CZ-4B DEB 3.9 21:12:04 29° NNE 21:12:04 29° NNE 21:13:58 10° N
Cosmos 2098 Rocket 4.4 21:04:24 10° S 21:11:29 86° W 21:19:10 10° N
Cosmos 1733 3.3 21:10:59 46° SE 21:11:35 52° E 21:15:22 10° NNE
Cosmos 1459 Rocket 4.0 21:06:16 10° SSE 21:12:21 55° E 21:18:22 10° NNE
Cosmos 1340 Rocket 3.8 21:09:18 10° NNE 21:12:09 30° NE 21:12:09 30° NE
Cosmos 1447 Rocket 4.4 21:07:50 10° N 21:14:00 85° E 21:20:10 10° S
ATLAS 5 CENTAUR R/B 1.6 21:12:47 10° SSW 21:17:24 87° ESE 21:22:23 10° NNE
Cosmos 2173 Rocket 3.9 21:12:05 10° S 21:18:06 60° E 21:24:14 10° NNE
ISS -3.9 21:15:07 10° SW 21:18:22 82° NW 21:18:25 82° NNW
USA 215 3.1 21:12:46 10° NE 21:19:16 70° SE 21:25:45 10° SW
H-2A R/B 4.4 21:17:19 10° SSW 21:20:51 34° W 21:24:27 10° NNW
Cosmos 158 Rocket 3.9 21:16:03 10° N 21:21:10 63° ENE 21:22:45 42° SE
H-II Stage 2 3.3 21:19:52 10° SW 21:20:30 16° SW 21:20:30 16° SW
Cosmos 2297 4.2 21:16:17 10° SSW 21:21:55 62° WNW 21:27:36 10° NNE
Cosmos 1867 4.3 21:19:06 10° SW 21:24:25 55° WNW 21:29:47 10° NNE
Tiangong 1 2.8 21:23:50 10° W 21:25:54 24° SW 21:25:54 24° SW
Aurora 2 Rocket 4.2 21:21:54 10° SW 21:27:23 27° S 21:28:04 26° S
Abrixas 4.0 21:25:14 10° NW 21:26:58 32° NW 21:26:58 32° NW
Helios 1B rocket 3.2 21:29:58 10° N 21:33:59 51° WNW 21:37:57 10° SSW
Cosmos 1076 Rocket 4.4 21:31:07 10° NNW 21:35:11 46° W 21:38:07 17° SSW
Cosmos 1953 4.4 21:35:47 10° SW 21:39:17 28° WNW 21:42:49 10° NNW
Cosmos 2082 Rocket 2.1 21:33:38 10° NNW 21:39:21 84° WSW 21:41:10 45° SSE
Meteor 2-17 Rocket 4.3 21:40:14 38° SSE 21:42:36 67° E 21:48:43 10° NNE
GP-B 4.0 21:40:05 12° SSW 21:43:55 47° W 21:48:13 10° NNW
Envisat 2.9 21:42:59 54° S 21:44:10 85° WSW 21:49:17 10° NNW
Meteor 1-16 Rocket 4.2 21:44:16 61° ESE 21:44:25 61° E 21:50:15 10° NNE
Cosmos 1939 Rocket 3.3 21:45:32 58° N 21:45:32 58° N 21:48:54 10° N
Helios 1A 3.9 21:43:23 30° SSW 21:44:56 44° W 21:48:57 10° NNW
Cosmos 1271 Rocket 3.8 21:45:01 16° SSW 21:47:59 46° W 21:51:53 10° N
Resurs 01 Rocket 4.2 21:46:41 10° SW 21:49:50 19° W 21:53:00 10° NW
Cosmos 2016 Rocket 3.8 21:47:01 35° S 21:49:50 79° E 21:56:01 10° N
H-2A R/B 4.3 21:52:51 12° NNE 21:52:51 12° NNE 21:53:28 10° NNE
Cosmos 1725 Rocket 4.2 21:59:09 53° NE 21:59:09 53° NE 22:04:07 10° NNE
ERS-1 Rocket 3.5 22:03:22 52° N 22:03:22 52° N 22:07:12 10° N
Lacrosse 5 rocket 3.3 22:00:52 10° NNW 22:02:25 21° NNW 22:02:25 21° NNW
SL-08 R/B 4.5 22:10:08 67° SSW 22:11:05 84° W 22:17:32 10° N
Tsikada Rocket 4.4 22:12:46 10° N 22:17:28 52° NNE 22:17:28 52° NNE
